Kokomo, IN

9:22 AM EDT on October 18, 2017 (GMT -0400)
Kokomo Municipal

Weather History for KOKK - November, 2012

Change the Weather History Date:

Friday, November 23, 2012

  Actual Average (KGUS) Record (KGUS)
Temperature  
Mean Temperature 40 °F -  
Max Temperature 53 °F 44 °F 68 °F (1999)
Min Temperature 28 °F 31 °F 17 °F (2008)
Degree Days  
Heating Degree Days 24    
Moisture  
Dew Point 27 °F    
Average Humidity 73    
Maximum Humidity 94    
Minimum Humidity 60    
Precipitation  
Precipitation 0.03 in - - ()
Sea Level Pressure  
Sea Level Pressure 30.05 in    
Wind  
Wind Speed 22 mph (WNW)    
Max Wind Speed 34 mph    
Max Gust Speed 45 mph    
Visibility 10 miles    
Events      
Averages and records for this station are not official NWS values.
T = Trace of Precipitation, MM = Missing Value Source: NWS Daily Summary

Daily Weather History Graph

Daily Weather History Graph

Search for Another Location

Airport or City:

Trip Planner

Search our weather history database for the weather conditions in past years. The results will help you decide how hot, cold, wet, or windy it might be!

Date:

Astronomy

Nov. 23, 2012 Rise Set
Actual Time 6:40 AM CST 4:21 PM CST
Civil Twilight 6:10 AM CST 4:50 PM CST
Nautical Twilight 5:37 AM CST 5:24 PM CST
Astronomical Twilight 5:04 AM CST 5:56 PM CST
Moon 1:36 PM CST (11/23) 1:57 AM CST (11/23)
Length of Visible Light 10h 40m
Length of Day
9h 40m
Waxing Gibbous, 80% of the Moon is Illuminated
Nov 23
Waxing Gibbous
Nov 28
Full
Dec 6
Last Quarter
Dec 13
New
Dec 19
First Quarter

Hourly Weather History & Observations

Time (CST) Temp. Windchill Dew Point Humidity Pressure Visibility Wind Dir Wind Speed Gust Speed Precip Events Conditions
12:15 AM 51.8 °F - 48.2 °F 88% 29.89 in 5.0 mi WSW 23.0 mph 34.5 mph 0.03 in   Overcast
12:35 AM 51.8 °F - 50.0 °F 94% 29.88 in 8.0 mi WSW 19.6 mph - 0.03 in   Overcast
12:55 AM 53.6 °F - 50.0 °F 88% 29.89 in 9.0 mi West 20.7 mph 26.5 mph 0.03 in   Overcast
1:15 AM 53.6 °F - 51.8 °F 94% 29.89 in 8.0 mi West 20.7 mph 28.8 mph N/A   Overcast
1:35 AM 53.6 °F - 50.0 °F 88% 29.89 in 8.0 mi West 19.6 mph 29.9 mph N/A   Overcast
1:55 AM 48.2 °F - 42.8 °F 82% 29.91 in 10.0 mi WNW 32.2 mph 38.0 mph N/A   Overcast
2:15 AM 44.6 °F 35.3 °F 39.2 °F 81% 29.93 in 10.0 mi WNW 26.5 mph - N/A   Mostly Cloudy
2:35 AM 44.6 °F 35.9 °F 37.4 °F 76% 29.93 in 10.0 mi WNW 23.0 mph 27.6 mph N/A   Clear
2:55 AM 42.8 °F 32.7 °F 37.4 °F 81% 29.94 in 10.0 mi WNW 27.6 mph 32.2 mph N/A   Clear
3:15 AM 41.0 °F 31.9 °F 33.8 °F 76% 29.94 in 10.0 mi WNW 19.6 mph 29.9 mph N/A   Clear
3:35 AM 41.0 °F 31.9 °F 37.4 °F 87% 29.95 in 10.0 mi West 19.6 mph 25.3 mph N/A   Mostly Cloudy
3:55 AM 39.2 °F 29.0 °F 33.8 °F 81% 29.95 in 10.0 mi WNW 21.9 mph 31.1 mph N/A   Mostly Cloudy
4:15 AM 39.2 °F 28.3 °F 35.6 °F 87% 29.95 in 10.0 mi West 25.3 mph 31.1 mph N/A   Mostly Cloudy
4:35 AM 39.2 °F 29.3 °F 33.8 °F 81% 29.95 in 10.0 mi West 20.7 mph - N/A   Partly Cloudy
4:55 AM 37.4 °F 27.2 °F 33.8 °F 87% 29.96 in 10.0 mi West 19.6 mph 24.2 mph N/A   Clear
5:15 AM 37.4 °F 27.8 °F 33.8 °F 87% 29.96 in 10.0 mi West 17.3 mph 26.5 mph N/A   Clear
5:35 AM 37.4 °F 27.8 °F 33.8 °F 87% 29.96 in 10.0 mi West 17.3 mph 20.7 mph N/A   Clear
5:55 AM 37.4 °F 29.3 °F 30.2 °F 75% 29.96 in 10.0 mi West 12.7 mph 20.7 mph N/A   Clear
6:15 AM 35.6 °F 26.2 °F 32.0 °F 87% 29.96 in 10.0 mi West 15.0 mph - N/A   Clear
6:35 AM 35.6 °F 26.2 °F 32.0 °F 87% 29.96 in 10.0 mi West 15.0 mph - N/A   Clear
6:55 AM 35.6 °F 25.5 °F 30.2 °F 81% 29.96 in 10.0 mi West 17.3 mph 23.0 mph N/A   Clear
7:15 AM 35.6 °F 25.5 °F 30.2 °F 81% 29.97 in 10.0 mi West 17.3 mph 23.0 mph N/A   Clear
7:35 AM 37.4 °F 25.6 °F 30.2 °F 75% 29.97 in 10.0 mi West 26.5 mph - N/A   Clear
7:55 AM 37.4 °F 25.0 °F 28.4 °F 70% 29.97 in 10.0 mi West 29.9 mph 34.5 mph N/A   Scattered Clouds
8:15 AM 37.4 °F 26.1 °F 28.4 °F 70% 29.98 in 10.0 mi West 24.2 mph 36.8 mph N/A   Mostly Cloudy
8:35 AM 35.6 °F 22.1 °F 26.6 °F 70% 29.99 in 10.0 mi WNW 32.2 mph 40.3 mph N/A   Overcast
8:55 AM 35.6 °F 22.5 °F 24.8 °F 65% 29.99 in 10.0 mi WNW 29.9 mph 38.0 mph N/A   Overcast
9:15 AM 35.6 °F 22.5 °F 24.8 °F 65% 30.00 in 10.0 mi WNW 29.9 mph 41.4 mph N/A   Overcast
9:35 AM 33.8 °F 20.3 °F 24.8 °F 70% 30.02 in 10.0 mi West 28.8 mph 38.0 mph N/A   Overcast
9:55 AM 33.8 °F 20.8 °F 26.6 °F 75% 30.02 in 10.0 mi West 26.5 mph 33.4 mph N/A   Overcast
10:15 AM 33.8 °F 20.8 °F 26.6 °F 75% 30.02 in 10.0 mi West 26.5 mph 39.1 mph N/A   Overcast
10:35 AM 33.8 °F 19.6 °F 26.6 °F 75% 30.02 in 10.0 mi WNW 32.2 mph 40.3 mph N/A   Overcast
10:55 AM 33.8 °F 19.2 °F 24.8 °F 70% 30.02 in 10.0 mi WNW 34.5 mph 41.4 mph N/A   Overcast
11:15 AM 33.8 °F 20.5 °F 24.8 °F 70% 30.02 in 10.0 mi WNW 27.6 mph 44.9 mph N/A   Overcast
11:35 AM 33.8 °F 19.9 °F 24.8 °F 70% 30.02 in 10.0 mi WNW 31.1 mph 38.0 mph N/A   Overcast
12:15 PM 32.0 °F 17.9 °F 24.8 °F 75% 30.03 in 10.0 mi WNW 28.8 mph 41.4 mph N/A   Overcast
12:35 PM 32.0 °F 17.4 °F 23.0 °F 69% 30.04 in 10.0 mi WNW 31.1 mph 41.4 mph N/A   Overcast
12:55 PM 32.0 °F 17.9 °F 23.0 °F 69% 30.03 in 10.0 mi WNW 28.8 mph 39.1 mph N/A   Overcast
1:15 PM 32.0 °F 18.1 °F 21.2 °F 64% 30.04 in 10.0 mi WNW 27.6 mph 39.1 mph N/A   Overcast
1:35 PM 32.0 °F 17.6 °F 23.0 °F 69% 30.05 in 10.0 mi WNW 29.9 mph 36.8 mph N/A   Overcast
1:55 PM 30.2 °F 16.2 °F 23.0 °F 75% 30.06 in 10.0 mi WNW 25.3 mph 33.4 mph N/A   Overcast
2:15 PM 30.2 °F 16.8 °F 21.2 °F 69% 30.07 in 10.0 mi WNW 23.0 mph 32.2 mph N/A   Overcast
2:35 PM 30.2 °F 17.4 °F 23.0 °F 75% 30.08 in 10.0 mi WNW 20.7 mph 31.1 mph N/A   Overcast
2:55 PM 30.2 °F 15.7 °F 23.0 °F 75% 30.09 in 10.0 mi WNW 27.6 mph 35.7 mph N/A   Overcast
3:15 PM 30.2 °F 16.8 °F 21.2 °F 69% 30.10 in 10.0 mi WNW 23.0 mph 33.4 mph N/A   Overcast
3:35 PM 30.2 °F 17.4 °F 21.2 °F 69% 30.12 in 10.0 mi WNW 20.7 mph 26.5 mph N/A   Overcast
3:55 PM 30.2 °F 18.1 °F 21.2 °F 69% 30.12 in 10.0 mi WNW 18.4 mph 28.8 mph N/A   Overcast
4:15 PM 30.2 °F 16.8 °F 19.4 °F 64% 30.13 in 10.0 mi WNW 23.0 mph - N/A   Overcast
4:35 PM 30.2 °F 18.9 °F 19.4 °F 64% 30.13 in 10.0 mi NW 16.1 mph 21.9 mph N/A   Overcast
4:55 PM 30.2 °F 17.4 °F 19.4 °F 64% 30.14 in 10.0 mi NW 20.7 mph 31.1 mph N/A   Overcast
5:15 PM 30.2 °F 18.1 °F 19.4 °F 64% 30.15 in 10.0 mi WNW 18.4 mph 24.2 mph N/A   Overcast
5:35 PM 30.2 °F 18.9 °F 19.4 °F 64% 30.15 in 10.0 mi NW 16.1 mph 25.3 mph N/A   Overcast
5:55 PM 30.2 °F 17.8 °F 19.4 °F 64% 30.16 in 10.0 mi NW 19.6 mph 26.5 mph N/A   Overcast
6:15 PM 30.2 °F 18.1 °F 17.6 °F 60% 30.16 in 10.0 mi NW 18.4 mph 23.0 mph N/A   Overcast
6:35 PM 30.2 °F 18.5 °F 19.4 °F 64% 30.17 in 10.0 mi NNW 17.3 mph 21.9 mph N/A   Overcast
6:55 PM 28.4 °F 17.0 °F 17.6 °F 64% 30.18 in 10.0 mi NW 15.0 mph 24.2 mph N/A   Overcast
7:15 PM 28.4 °F 16.2 °F 17.6 °F 64% 30.18 in 10.0 mi NW 17.3 mph 25.3 mph N/A   Overcast
7:35 PM 28.4 °F 16.6 °F 17.6 °F 64% 30.18 in 10.0 mi WNW 16.1 mph 20.7 mph N/A   Overcast
7:55 PM 28.4 °F 15.8 °F 17.6 °F 64% 30.19 in 10.0 mi NW 18.4 mph 24.2 mph N/A   Overcast
8:15 PM 28.4 °F 17.0 °F 17.6 °F 64% 30.18 in 10.0 mi WNW 15.0 mph - N/A   Overcast
8:35 PM 28.4 °F 16.6 °F 19.4 °F 69% 30.18 in 10.0 mi WNW 16.1 mph - N/A   Overcast
8:55 PM 28.4 °F 17.0 °F 19.4 °F 69% 30.18 in 10.0 mi WNW 15.0 mph - N/A   Overcast
9:15 PM 28.4 °F 17.0 °F 17.6 °F 64% 30.18 in 10.0 mi WNW 15.0 mph - N/A   Overcast
9:35 PM 28.4 °F 16.6 °F 17.6 °F 64% 30.18 in 10.0 mi WNW 16.1 mph - N/A   Overcast
9:55 PM 28.4 °F 16.2 °F 17.6 °F 64% 30.18 in 10.0 mi West 17.3 mph - N/A   Overcast
10:15 PM 28.4 °F 16.6 °F 17.6 °F 64% 30.18 in 10.0 mi WNW 16.1 mph - N/A   Overcast
10:35 PM 28.4 °F 16.6 °F 19.4 °F 69% 30.17 in 10.0 mi WNW 16.1 mph - N/A   Overcast
10:55 PM 28.4 °F 16.6 °F 19.4 °F 69% 30.18 in 10.0 mi West 16.1 mph - N/A   Overcast
11:15 PM 28.4 °F 16.2 °F 19.4 °F 69% 30.18 in 10.0 mi WNW 17.3 mph 20.7 mph N/A   Overcast
11:35 PM 28.4 °F 18.0 °F 19.4 °F 69% 30.18 in 10.0 mi West 12.7 mph - N/A   Overcast
11:55 PM 28.4 °F 17.5 °F 19.4 °F 69% 30.17 in 10.0 mi West 13.8 mph 19.6 mph N/A   Overcast